Weather History for KMWC - January, 2013

Change the Weather History Date:

Thursday, January 24, 2013

  Actual Average Record
Temperature  
Mean Temperature 10 °F -  
Max Temperature 19 °F 31 °F 50 °F (1981)
Min Temperature 1 °F 16 °F -15 °F (1963)
Degree Days  
Heating Degree Days 55    
Moisture  
Dew Point 0 °F    
Average Humidity 62    
Maximum Humidity 67    
Minimum Humidity 53    
Precipitation  
Precipitation 0.00 in - - ()
Sea Level Pressure  
Sea Level Pressure 30.47 in    
Wind  
Wind Speed 9 mph (WNW)    
Max Wind Speed 18 mph    
Max Gust Speed 22 mph    
Visibility 10 miles    
Events      
Averages and records for this station are not official NWS values.
T = Trace of Precipitation, MM = Missing Value Source: NWS Daily Summary

Daily Weather History Graph

Daily Weather History Graph

Search for Another Location

Airport or City:

Trip Planner

Search our weather history database for the weather conditions in past years. The results will help you decide how hot, cold, wet, or windy it might be!

Date:

Astronomy

Jan. 24, 2013 Rise Set
Actual Time 7:14 AM CST 4:54 PM CST
Civil Twilight 6:43 AM CST 5:25 PM CST
Nautical Twilight 6:09 AM CST 5:59 PM CST
Astronomical Twilight 5:35 AM CST 6:33 PM CST
Moon 2:55 PM CST (1/24) 5:13 AM CST (1/24)
Length of Visible Light 10h 41m
Length of Day
9h 39m
Waxing Gibbous, 94% of the Moon is Illuminated
Jan 24
Waxing Gibbous
Jan 26
Full
Feb 3
Last Quarter
Feb 10
New
Feb 17
First Quarter

Hourly Weather History & Observations

Time (CST) Temp. Windchill Dew Point Humidity Pressure Visibility Wind Dir Wind Speed Gust Speed Precip Events Conditions
12:15 AM 6.8 °F -9.3 °F -4.0 °F 61% 30.37 in 10.0 mi NNW 12.7 mph 19.6 mph N/A   Clear
12:35 AM 6.8 °F -12.4 °F -4.0 °F 61% 30.38 in 10.0 mi NNW 18.4 mph 21.9 mph N/A   Clear
12:55 AM 6.8 °F -9.3 °F -4.0 °F 61% 30.39 in 10.0 mi NNW 12.7 mph 17.3 mph N/A   Clear
1:15 AM 5.0 °F -11.6 °F -4.0 °F 66% 30.41 in 10.0 mi NNW 12.7 mph - N/A   Clear
1:35 AM 5.0 °F -10.8 °F -4.0 °F 66% 30.42 in 10.0 mi NNW 11.5 mph - N/A   Clear
1:55 AM 5.0 °F -12.3 °F -5.8 °F 61% 30.44 in 10.0 mi NNW 13.8 mph - N/A   Clear
2:15 AM 5.0 °F -10.8 °F -5.8 °F 61% 30.44 in 10.0 mi NNW 11.5 mph - N/A   Clear
2:35 AM 5.0 °F -13.0 °F -5.8 °F 61% 30.45 in 10.0 mi NNW 15.0 mph 19.6 mph N/A   Clear
2:55 AM 5.0 °F -11.6 °F -5.8 °F 61% 30.46 in 10.0 mi NNW 12.7 mph - N/A   Clear
3:15 AM 5.0 °F -10.8 °F -5.8 °F 61% 30.47 in 10.0 mi NNW 11.5 mph 19.6 mph N/A   Clear
3:35 AM 3.2 °F -12.2 °F -5.8 °F 66% 30.48 in 10.0 mi NNW 10.4 mph - N/A   Clear
3:55 AM 3.2 °F -12.2 °F -5.8 °F 66% 30.49 in 10.0 mi NNW 10.4 mph 17.3 mph N/A   Clear
4:15 AM 3.2 °F -11.3 °F -5.8 °F 66% 30.51 in 10.0 mi NNW 9.2 mph - N/A   Clear
4:35 AM 3.2 °F -12.2 °F -5.8 °F 66% 30.51 in 10.0 mi NNW 10.4 mph - N/A   Clear
4:55 AM 3.2 °F -9.1 °F -5.8 °F 66% 30.53 in 10.0 mi NNW 6.9 mph - N/A   Clear
5:15 AM 3.2 °F -10.3 °F -5.8 °F 66% 30.54 in 10.0 mi NW 8.1 mph - N/A   Clear
5:35 AM 3.2 °F -11.3 °F -5.8 °F 66% 30.56 in 10.0 mi NW 9.2 mph - N/A   Clear
6:45 AM 1.4 °F -13.5 °F -7.6 °F 66% 30.57 in 10.0 mi NW 9.2 mph - N/A   Clear
7:45 AM 1.4 °F -14.5 °F -7.6 °F 66% 30.59 in 10.0 mi NNW 10.4 mph - N/A   Clear
8:45 AM 3.2 °F -12.2 °F -5.8 °F 66% 30.62 in 10.0 mi NNW 10.4 mph - N/A   Clear
9:45 AM 6.8 °F -5.9 °F -2.2 °F 67% 30.63 in 10.0 mi NNW 8.1 mph - N/A   Clear
10:45 AM 8.6 °F -1.3 °F -0.4 °F 67% 30.61 in 10.0 mi NNW 5.8 mph - N/A   Clear
11:45 AM 10.4 °F - 1.4 °F 67% 30.60 in 10.0 mi Calm Calm - N/A   Clear
12:45 PM 14.0 °F - 1.4 °F 57% 30.57 in 10.0 mi Calm Calm - N/A   Clear
1:45 PM 15.8 °F - 1.4 °F 53% 30.55 in 10.0 mi Calm Calm - N/A   Clear
2:45 PM 15.8 °F - 3.2 °F 58% 30.54 in 10.0 mi Calm Calm - N/A   Clear
3:45 PM 15.8 °F - 1.4 °F 53% 30.52 in 10.0 mi Calm Calm - N/A   Clear
4:45 PM 15.8 °F - 1.4 °F 53% 30.50 in 10.0 mi Calm Calm - N/A   Clear
5:45 PM 15.8 °F - 1.4 °F 53% 30.50 in 10.0 mi Calm Calm - N/A   Overcast
6:45 PM 15.8 °F - 1.4 °F 53% 30.47 in 10.0 mi Calm Calm - N/A   Overcast
7:45 PM 15.8 °F - 3.2 °F 58% 30.45 in 10.0 mi Calm Calm - N/A   Overcast
8:15 PM 17.6 °F 12.3 °F 5.0 °F 58% 30.42 in 10.0 mi SE 3.5 mph - N/A   Overcast
8:35 PM 17.6 °F 10.7 °F 5.0 °F 58% 30.42 in 10.0 mi South 4.6 mph - N/A   Overcast
8:45 PM 17.6 °F 9.3 °F 6.8 °F 63% 30.43 in 10.0 mi South 5.8 mph - N/A   Overcast
8:55 PM 19.4 °F 12.8 °F 6.8 °F 58% 30.43 in 10.0 mi SSW 4.6 mph - N/A   Overcast
9:15 PM 19.4 °F 12.8 °F 8.6 °F 63% 30.42 in 10.0 mi SSW 4.6 mph - N/A   Overcast
9:35 PM 19.4 °F 12.8 °F 8.6 °F 63% 30.42 in 10.0 mi SSW 4.6 mph - N/A   Overcast
9:55 PM 19.4 °F 11.5 °F 8.6 °F 63% 30.39 in 10.0 mi South 5.8 mph - N/A   Overcast
10:15 PM 19.4 °F 11.5 °F 6.8 °F 58% 30.38 in 10.0 mi SSW 5.8 mph - N/A   Overcast
10:35 PM 19.4 °F 11.5 °F 8.6 °F 63% 30.37 in 10.0 mi South 5.8 mph - N/A   Overcast
10:55 PM 19.4 °F 12.8 °F 8.6 °F 63% 30.38 in 10.0 mi SSW 4.6 mph - N/A   Overcast
11:15 PM 19.4 °F 11.5 °F 8.6 °F 63% 30.37 in 10.0 mi South 5.8 mph - N/A   Overcast
11:35 PM 19.4 °F 12.8 °F 8.6 °F 63% 30.37 in 10.0 mi SSW 4.6 mph - N/A   Overcast
11:55 PM 19.4 °F 12.8 °F 8.6 °F 63% 30.36 in 10.0 mi South 4.6 mph - N/A   Overcast